Flag for U.S.A. Weather past 2 weeks in Arlington, Texas, U.S.A.

Now
77 °F

Clear.


Feels Like: 79 °F
Forecast: 78 / 96 °F
Wind: 3 mph from West

Location: Arlington Municipal Airport

Current Time: Jul 24, 2014 at 3:46:05 AM

Latest Report: Jul 24, 2014 at 2:53 AM


Visibility: 10 mi

Pressure: 29.96 "Hg

Humidity: 66%

Dew point: 65 °F

Location of ArlingtonLocation

Historic Weather in Arlington — Graph

°F

Arlington temperature yesterday

Maximum temperature yesterday: 95 °F (at 3:53 PM)
Minimum temperature yesterday: 72 °F (at 5:53 AM)
Average temperature yesterday: 84 °F

Past Weeks' High & Low Weather Summary

 TemperatureHumidityPressure
High101 °F (Jul 14, 2:53 PM)94% (Jul 15, 3:53 AM)30.15 "Hg (Jul 15, 3:53 AM)
Low65 °F (Jul 20, 5:53 AM)23% (Jul 15, 4:53 PM)29.83 "Hg (Jul 16, 6:53 PM)
Average82 °F61%29.98 "Hg
* Reported Jul 9 1:53 AM — Jul 24 1:53 AM, Arlington, Weather by CustomWeather, © 2014

Note: Actual official high and low records may vary slightly from our data, if they occured in-between our weather recording intervals... More about our weather records

Advertising

Arlington weather history for previous 24 hours

 ConditionsComfort  
Time TempWeatherWind HumidityBarometerVisibility
1:53 AM
Jul 24
76 °FClear.5 mph69%29.97 "Hg10 mi
12:53 AM75 °FClear.No wind76%29.99 "Hg10 mi
11:53 PM
Jul 23
76 °FPassing clouds.6 mph74%30.02 "Hg10 mi
10:53 PM78 °FClear.12 mph64%30.05 "Hg10 mi
9:53 PM79 °FClear.13 mph62%30.05 "Hg10 mi
8:53 PM91 °FPassing clouds.13 mph47%30.01 "Hg10 mi
7:53 PM92 °FSunny.7 mph44%29.99 "Hg10 mi
6:53 PM93 °FSunny.7 mph41%29.97 "Hg10 mi
5:53 PM94 °FSunny.5 mph38%29.98 "Hg10 mi
4:53 PM94 °FSunny.5 mph37%29.98 "Hg10 mi
3:53 PM95 °FSunny.6 mph36%30.01 "Hg10 mi
2:53 PM94 °FSunny.5 mph36%30.03 "Hg10 mi
1:53 PM92 °FSunny.7 mph38%30.05 "Hg10 mi
12:53 PM90 °FSunny.5 mph43%30.06 "Hg10 mi
11:53 AM89 °FSunny.6 mph46%30.07 "Hg10 mi
10:53 AM86 °FSunny.5 mph53%30.08 "Hg10 mi
9:53 AM84 °FSunny.No wind59%30.09 "Hg10 mi
8:53 AM81 °FSunny.No wind69%30.09 "Hg10 mi
7:53 AM77 °FSunny.No wind82%30.08 "Hg6 mi
6:53 AM72 °FFog.No wind91%30.06 "Hg5 mi
5:53 AM72 °FClear.No wind91%30.06 "Hg8 mi
4:53 AM73 °FClear.No wind88%30.05 "Hg9 mi
3:53 AM75 °FClear.No wind82%30.05 "Hg10 mi
Weather by CustomWeather, © 2014

See weather overviewHow to use our weather pages